Tracking 35331 objects as of 14-Sep-2026
HD Live streaming from Space Station
objects crossing your sky now

ZORKIY-2M-7

Track ZORKIY-2M-7 now!
10-day predictions
ZORKIY-2M-7 is classified as:


NORAD ID: 67268
Int'l Code: 2025-313W
Launch date: December 28, 2025
Source: (TBD)
Launch site: VOSTOCHNY COSMODROME (VOSTO)

Uplink (MHz):
Downlink (MHz): 401.017/401.245*
Beacon (MHz):
Mode: 2k4 GMSK_USP
Call sign: A0XAA/AB
Status: Active

Your satellite tracking list
Your tracking list is empty




NASA's NSSDC Master Catalog

Two Line Element Set (TLE):
1 67268U 25313W   26256.45543825  .00005116  00000-0  21597-3 0  9990
2 67268  97.3880 329.6976 0015703  58.3169 301.9597 15.23602953 39389
Source of the keplerian elements: AFSPC